Baseball 板


LINE

#50 Hao-Yu Lee 先发二棒3B AB R H HR RBI BB K SB TB E AVG OBP SLG OPS wRC+ 4 0 1 0 0 1 0 1 1 0 .268 .311 .414 .725 102 1▼ vs Blake Snell(LHP) Pop Out EV69mph 104ft 72deg xBA.000 Bat Speed 70.5mph https://i.imgur.com/5bsAH6C.png 3▼ vs Blake Snell(LHP) Pop Out EV89mph 170ft 66deg xBA.010 Bat Speed 75.8mph https://i.imgur.com/YwGDpLQ.png 5▼ vs Blake Snell(LHP) Pop Out EV74.2mph 133ft 68deg xBA.000 https://i.imgur.com/Yw1jcbF.png 7▼ vs Alex Vesia(LHP) Single EV108.3mph 88ft 3deg xBA.530 Bat Speed 74.0mph https://www.threads.com/@shanglinsam/post/DcorpqZE7K3 Stolen Base 2B(2) https://www.threads.com/@shanglinsam/post/DcosKwCk1Qe 9▼ vs Jack Dreyer(LHP) Walk https://www.threads.com/@mylifewill_/post/Dcox14akx2f 今日李灏宇安打盗垒又选到保送啦!!! 前三打席都没有掌握好 都是切到球下缘的一垒Pop out 终於在第四打席敲出一二垒间空隙的安打 这球击球初速来到108.3mph 也是全场击球初速最快的一球 连续两天都击出全场击球初速最高的一球 随後也跑出本季第二盗 起跑Timing抓得很好 Rortvedt传到二垒时已滑上垒 九下再见呛司被IBB前一棒要抓他 靠着耐心选球在满球数後选到保送挤成满垒 最後少主也击出再见安打!!! 守备方面有一次瑕疵但没有被记失误 错失了制造双杀的机会 还好後来塞满垒後制造了双杀没有多掉分 守备就再多加油吧 -- #39 郑宗哲 Tsung-Che Cheng Boston Red Sox https://i.imgur.com/EhVZZsM.jpeg https://i.imgur.com/tUaxbUN.jpeg https://i.imgur.com/jvkBCR9.jpeg --



※ 发信站: 批踢踢实业坊(ptt.cc), 来自: 223.137.60.43 (台湾)
※ 文章网址: https://webptt.com/cn.aspx?n=bbs/Baseball/M.1788033641.A.53A.html
1F:推 twtpcsilence: 推08/30 04:00
2F:推 mork8850: 水啦08/30 04:01
3F:→ twtpcsilence: 耶头香08/30 04:01
4F:推 superhannn: 下次换你当英雄08/30 04:01
5F:→ chiki428: 拉尾盘今天08/30 04:01
6F:→ O10lOl01O: 熬到最後值得啦08/30 04:01
7F:推 aa5aa9522: 推08/30 04:01
8F:→ WongTakashi: 公务员08/30 04:01
9F:推 Galbygene: good08/30 04:01
10F:推 jiaxie: 连两天被木屐打穿守备,运气不错没因为这样掉分08/30 04:01
11F:推 cdsjquiz: 推08/30 04:01
12F:推 kevin74105: 开低走高08/30 04:02
13F:推 try107799: 做球给少主08/30 04:02
14F:推 rayrayok: 最後打席选的好 可惜没自己打回来08/30 04:02
15F:→ nsk: https://i.mopix.cc/fUxyyd.jpg08/30 04:02
16F:推 l5i9hbba: 今天前面三打席有够丑 还好後面两打席弥补回来 守备再加08/30 04:02
17F:→ l5i9hbba: 油啦..08/30 04:02
18F:→ spzper: 还行中规中08/30 04:02
19F:推 xyz168: 大压力顶住了,教练都有看在眼里,大加分,修正的也快08/30 04:02
20F:推 heaventrain: 加油08/30 04:02
21F:→ rong1994: 蜗牛下去之後整个状况还是很好 强击球安打 最後很漂亮08/30 04:02
22F:→ rong1994: 的选球 状况真的还是可以的 08/30 04:02
23F:推 Cctwtnk: 推08/30 04:02
24F:→ spzper: 守备差点就用打击来补08/30 04:02
25F:推 jojo726: 有安有盗垒有BB 可以了08/30 04:02
26F:→ lsj049: 赞赞赞 第四打席醒了 第五打席关键BB让少主再见安打08/30 04:02
27F:→ nsk: https://i.mopix.cc/rbJlny.jpg08/30 04:02
28F:→ xyz168: 基本上几个打席就修正回来08/30 04:02
29F:→ jsai: 选到BB做球给少主不错08/30 04:02
30F:推 EasyIsBeauty: 赞赞08/30 04:02
31F:推 don323: 最後有拼到保送就是赞啦08/30 04:03
32F:推 JustWinslow: 他如果穿道奇球衣 最後就打DP 选不到保送08/30 04:03
33F:推 Siika: 强08/30 04:03
34F:→ leo79415: 前三次都打太急 好在最後一个打席冷静下来选了t08/30 04:03
35F:推 rickyjessy: 加油啊08/30 04:03
36F:推 a12841: 後面2打席小补一点08/30 04:03
37F:→ lsj049: 前三次真的有够丑的 根本复制贴上08/30 04:03
38F:→ lsj049: 第四打席就回魂了08/30 04:03
39F:推 same60710: 赞喔 就说Snell等级不同很难打 前面不知道急什麽…08/30 04:04
40F:推 Jimimy: 主播又吹了一次灏宇选到四坏08/30 04:04
41F:推 ken159753000: 不错 二棒打整场 选球有耐心08/30 04:04
42F:推 andy60214: 最後还笑得出来黑帮老大真的好呛哈哈哈08/30 04:04
43F:推 cama: 大场面会笑的2棒价值 顶起来08/30 04:04
44F:推 gotohikaru: 最後的BB让外野必须继续守浅也算有帮助 08/30 04:04
45F:→ caeiu: 大场面还笑得出来真的心脏大颗08/30 04:05
46F:推 k5204520: 最後BB逼的要正面对决少主 不然肯定选对决丁哥08/30 04:05
47F:推 jschenlemn: 有安打有盗垒最後关键BB又是愉快的一天08/30 04:05
48F:→ exrickeynew: 再见场面一上来就笑 这心里素质稳了08/30 04:05
49F:→ rong1994: 强力推荐没看直播的朋友去看他最後一个打席 23岁第一年08/30 04:06
50F:→ rong1994: 菜鸟在那个情况能缠斗选保送 真的很了不起08/30 04:06
51F:推 karta3127117: 刚那个打席蛮刺激08/30 04:06
52F:推 Hugo92466312: 赞喔08/30 04:06
53F:→ rong1994: 最後那个打席在教练心中一定是大加分的08/30 04:06
54F:推 lsj049: 赛扬左投真的难打08/30 04:06
55F:→ l5i9hbba: 上去打前巴椰子耳提面命一直提醒 然後灏宇就笑了 果然不08/30 04:06
56F:→ l5i9hbba: 是浪得虚名的天才?(误08/30 04:06
57F:→ JeremyNeil: 今天最後两打席还好有振作!加油加油08/30 04:06
58F:推 space20021: 前三次被蜗牛玩死QQ08/30 04:07
59F:→ lsj049: 如果大谷明天假先发的话 希望能在前三棒打大谷08/30 04:07
60F:→ l5i9hbba: 灏宇上来之後打球心的能力蛮好的 就知道蜗牛的球有多会08/30 04:08
61F:→ l5i9hbba: 跑08/30 04:08
62F:推 andy60214: 巴爷跟他提醒还搭配手势,到底说了什麽,速球会往上飘08/30 04:08
63F:→ andy60214: 喔放过高球?08/30 04:08
64F:推 photoB1N: 熬夜值得 赞赞08/30 04:08
65F:推 Cm048: 最後选球扛得住压力啊08/30 04:08
66F:推 jiaxie: 右投先发,虎教头应该会调到後段棒次 08/30 04:08
67F:推 leo79415: 也有可能轮休吧 最近也连续好几场先发了08/30 04:08
68F:→ O10lOl01O: 前三打席看完 先发危险 最後两打席看完 先发稳了!08/30 04:09
69F:推 PaladinC: 推好的本垒板纪律08/30 04:09
70F:→ O10lOl01O: 还是收尾漂亮比较重要 如果是後三次丑就难讲了08/30 04:09
71F:→ gn7722: 前面三打席不知道在打三洨08/30 04:10
72F:推 l5i9hbba: 巴椰子好状况 搞不好会轮休了08/30 04:10
73F:推 Cuchulainn: 止败就是爽08/30 04:12
74F:推 rong1994: 前三打席整个乱掉 加上守备又失误 我看转播都觉得今天08/30 04:15
75F:→ rong1994: 崩了 但他真的调整很快 心态超稳08/30 04:15
76F:推 tnl0716: 最近感觉左投会去打二棒 右投就会去九棒08/30 04:15
77F:推 CaminoI: 前面对的毕竟是蜗牛阿 後面打出来 最後被抓有稳住BB08/30 04:15
78F:→ CaminoI: 延续攻势也是关键08/30 04:16
79F:推 sulaeric: 最後缠斗上垒。太神了08/30 04:16
80F:→ CaminoI: 面对大场面的抗压力不错08/30 04:16
81F:→ lsj049: 不过之前状况好的时候打右投还是二棒就是了08/30 04:16
82F:推 l5i9hbba: 明天也有Torkelson 板凳,Keith一垒的选项。今天Hinch就08/30 04:17
83F:→ l5i9hbba: 先受不了Torkelson了08/30 04:17
84F:→ l5i9hbba: 那场右投毕竟是打Wacha,最会打的08/30 04:17
85F:→ lsj049: 鸡丝一垒老虎教练团坐得住吗ww08/30 04:19
86F:→ lsj049: 不过明天应该会二垒让托天子打DH吧08/30 04:19
87F:推 OhmaZiO: 赞赞赞08/30 04:19
88F:推 O10lOl01O: 明天0140见...也是凌晨打 08/30 04:19
89F:→ xyz168: 李前面打席本来可以建功,被Snell来个换鞋rush到...算是08/30 04:20
90F:→ xyz168: 学个经验,後来也修正的很快,心理素质没崩掉,赞赞赞08/30 04:20
91F:推 rong1994: 赛後应该有记者问他为啥可以突然换鞋吧08/30 04:20
92F:→ rong1994: 好好奇08/30 04:20
93F:推 CaminoI: 这两天好像都有被针对到 昨天被IBB 今天被抓 还有疑似换08/30 04:21
94F:→ CaminoI: 鞋拐气?08/30 04:21
95F:→ xyz168: 教练九局的关键打席都没换李,算是对他有信心了,铁了心08/30 04:21
96F:→ xyz168: 要好好栽培李这个棒子08/30 04:22
97F:推 prosta: 丁哥毕竟今天吃3K了,少主还选了2BB 08/30 04:22
98F:→ prosta: 所以李灏宇最後那保送很重要08/30 04:23
99F:推 MK47: 赞的08/30 04:23
※ 编辑: ProducerChen (223.137.60.43 台湾), 08/30/2026 04:24:13
100F:推 caeiu: 只看这场你觉得他危险,看完他整个八月你会知道李现在算是 08/30 04:25
101F:→ caeiu: 进入AJ的信任范围 08/30 04:25
102F:推 Arodz: 好‼ 08/30 04:25
103F:→ caeiu: 9下保送能串连前後顺利再见安,明年李在老虎打线肯定是会很 08/30 04:26
104F:→ caeiu: 有存在感 08/30 04:26
105F:推 O10lOl01O: 再来应该是对雪哥?右投 看会排第几棒 08/30 04:31
106F:推 ZaneTrout: 加油 08/30 04:31
107F:→ k60517no1: 前三打席不知道在急什麽,浅球数一直出棒,强打者不能 08/30 04:32
108F:→ k60517no1: 害怕两好球,而且你还有不错的缠斗能力,做好纪律才有 08/30 04:32
109F:→ k60517no1: 持续先发的空间 08/30 04:32
110F:推 lsj049: 话说李灏宇单季90场出赛写下台湾野手新纪录 08/30 04:37
111F:→ lsj049: 目前单季保送跟部长并列最高 08/30 04:37
112F:推 Eric102990: 鸟飞是强打者的特产 08/30 04:38
113F:推 littlesheepy: 挖前两打席都鸟飞就不看了,想不到结果还行 08/30 04:41
114F:推 Joseph0724: 很棒 08/30 04:46
115F:→ a0561349: 守备真的要加油阿 08/30 04:50
116F:推 coffee0981: 今天表现不错,看前三个打席以为今天打击凉了,幸好 08/30 05:22
117F:→ coffee0981: 第四打席有敲安然後後面还选到一个保送 08/30 05:22
118F:→ James921124: 继续加油 08/30 05:38
119F:推 amen123: 九下关键选球 08/30 05:39
120F:推 nyybronx: 後面还行,前面只能说Snell太难打了 08/30 05:51
121F:推 shigeno24: 蜗牛的投球型态真的克死李灏宇 08/30 05:54
122F:推 shigeno24: 高位速球精准压在好球带上缘很难打 08/30 05:54
123F:推 pheer: 推,灏宇强啦 08/30 05:59
124F:→ WasJohnWall: 李真的比想像还优秀 08/30 06:10
125F:推 yuki476375: 最後打席最後一球高球有忍住,好险 08/30 06:22
126F:推 Augustus5: 可以喔 08/30 06:30
127F:推 smallken0410: 比特犬赞啦 08/30 06:31
128F:推 leo79415: 邓上了 08/30 06:31
129F:推 jason40311: 打烂道奇就是爽啊!! 08/30 06:31
130F:推 RamenOwl: 比凉平强 08/30 06:32
131F:推 yayahong: 帅啊 08/30 06:33
132F:推 yiersan: 好在後来不错 加油 08/30 06:33
133F:→ aerysky: 赞赞 08/30 06:44
134F:→ lsj049: 大谷确定明天不先发 所以雪哥直接先发 08/30 06:49
135F:→ lsj049: 那李灏宇大概後段棒次守二垒吧 08/30 06:49
136F:推 catsondbs: 直播看三次高飞球以为今天不在状态 水啊 08/30 07:09
137F:推 momowawa1981: 继续保持 威啊 08/30 07:13
138F:推 e2c4o6: 漂亮 08/30 07:19
139F:推 ilks2334: 有安就行~ 08/30 07:25
140F:推 ilovesola: 还好有拉尾盘 继续加油 08/30 07:31
141F:推 Serenity7136: 继续加油! 08/30 07:34
142F:推 Coslate: ? 08/30 07:39
143F:推 koi33000: 後面不错 继续加油 08/30 07:43
144F:推 Yjizz: HAO DO YU DO 08/30 08:04
145F:推 HaoPing1119: 赞 08/30 08:15
146F:推 catsondbs: 好想知道八椰子跟他说了甚麽 心灵导师 08/30 08:18
147F:推 d123xxx: 前面对到蜗牛 能打好的人也不多啦 打得丑也还好 08/30 08:27
148F:推 kitvxq: 不错耶 加油 08/30 08:28
149F:推 birdskingla: 加油 08/30 08:31
150F:推 HuckleberryF: 还不错 加油 08/30 08:35
151F:推 ebiebibbNOOB: 加赛吧…拜托 08/30 08:40
152F:推 stpmouse: 赞 08/30 08:43
153F:推 SeanLi1013: 水喔 08/30 08:54
154F:推 helloemperor: 喔喔,後面打席有调整回来不错 08/30 08:54
155F:推 coveted: 真猛 08/30 08:55
156F:推 smalleyesjun: https://youtu.be/e_sDDS6yjdM 08/30 09:10
157F:推 ClaytonKersh: 赞喔 08/30 09:16
158F:推 bluefire: 难得被教练信任那麽久,手感继续维持啊,最後一个打席真 08/30 09:21
159F:→ bluefire: 的精彩 08/30 09:21
160F:推 foxey: 加油加油 今天击球品质变差要注意 08/30 09:28
161F:推 ricky9696: 加油 08/30 09:39
162F:推 Tr3vyy: 推推 08/30 09:44
163F:推 A135142: 爽啦 08/30 09:47
164F:推 abcnelson654: 盗垒好少 08/30 09:50
165F:推 mp5good: 最後一打席其实超精彩,前面看一颗超级会掉的曲球从肩膀 08/30 09:51
166F:→ mp5good: 高掉到膝盖高进垒,後面只要有相似的轨迹就一律出棒破坏 08/30 09:51
167F:→ mp5good: ,最後等到控不好的速球保送 08/30 09:51
168F:推 wenfei: 推 08/30 09:58
169F:推 jerrychien06: 看了三打席就睡了 後两打席不错 08/30 10:03
170F:推 MJL1822: 前三打席丑到哭 还好教练继续给机会 08/30 10:13
171F:推 utn875: 前三打席完全被压制,但关键时刻依然很有贡献 08/30 10:16
172F:推 terry955048: 打snell都没问题超强 08/30 10:36
173F:推 ByNash: 强心脏属性发动 关键时刻真的强 08/30 10:44
174F:推 Vincent10247: 加油! 08/30 10:53
175F:→ TKnR: 保送重要 08/30 10:53
176F:→ hpfan: 赞欸 08/30 11:06
177F:推 bluehttp: 李打球 有年轻人特有的拼劲 08/30 11:10
178F:推 huang6699: 推 08/30 11:30
179F:推 coronach: 遇上Vesia没被换下来就知道教练开始信任他了,继续加油 08/30 11:36
180F:推 wow999: 最後打席真的不简单 08/30 11:42
181F:推 hungyuan: 赞赞 08/30 11:46
182F:→ AhCheng: 赞赞 08/30 11:50
183F:推 seguignol: 加油 08/30 12:27
184F:推 blademan: 最後打席冷静选到保送真的赞 08/30 12:37
185F:推 rocky9137: 打击率从两成八跌到两成六了 08/30 12:41
186F:推 yomuntph: 跟鬼一样 守备怎样你先别管 08/30 12:52
187F:推 martinjfc: 今日文能顺便写个比赛结果再好不过,虎1分险胜 08/30 13:17
188F:推 jimmyyang207: 猛的点是招魂大队还来不及酸 李就已经调整好了 08/30 13:22
189F:→ jimmyyang207: 超强调整适应力 08/30 13:22
190F:推 O10lOl01O: 真的要给教练一个赞 前三打席打成这样 後来没换掉 08/30 13:43
191F:→ O10lOl01O: 真的满愿意给机会的 08/30 13:43
192F:推 LogDee: 继续保持! 08/30 13:44
193F:推 Pigsinthe: 所以第二个打席snell摸摸又回休息室是去干嘛? 08/30 13:45
194F:推 jason60528: 加油啊 08/30 13:48
195F:→ ProducerChen: 後来有访问Snell 他说是因为他脚上起水泡贴了一个 08/30 14:02
196F:→ ProducerChen: OK绷会一直滑 已经掉下来了所以他跟裁判说 裁判也 08/30 14:02
197F:→ ProducerChen: 同意他去撕掉 08/30 14:02
198F:推 webberfun: 赞赞 08/30 14:41
199F:推 sorrry30000: 爽啊刺啊 08/30 15:07
200F:→ hydra7: 前面会被蜗牛压制正常..... 08/30 15:28







like.gif 您可能会有兴趣的文章
icon.png[问题/行为] 猫晚上进房间会不会有憋尿问题
icon.pngRe: [闲聊] 选了错误的女孩成为魔法少女 XDDDDDDDDDD
icon.png[正妹] 瑞典 一张
icon.png[心得] EMS高领长版毛衣.墨小楼MC1002
icon.png[分享] 丹龙隔热纸GE55+33+22
icon.png[问题] 清洗洗衣机
icon.png[寻物] 窗台下的空间
icon.png[闲聊] 双极の女神1 木魔爵
icon.png[售车] 新竹 1997 march 1297cc 白色 四门
icon.png[讨论] 能从照片感受到摄影者心情吗
icon.png[狂贺] 贺贺贺贺 贺!岛村卯月!总选举NO.1
icon.png[难过] 羡慕白皮肤的女生
icon.png阅读文章
icon.png[黑特]
icon.png[问题] SBK S1安装於安全帽位置
icon.png[分享] 旧woo100绝版开箱!!
icon.pngRe: [无言] 关於小包卫生纸
icon.png[开箱] E5-2683V3 RX480Strix 快睿C1 简单测试
icon.png[心得] 苍の海贼龙 地狱 执行者16PT
icon.png[售车] 1999年Virage iO 1.8EXi
icon.png[心得] 挑战33 LV10 狮子座pt solo
icon.png[闲聊] 手把手教你不被桶之新手主购教学
icon.png[分享] Civic Type R 量产版官方照无预警流出
icon.png[售车] Golf 4 2.0 银色 自排
icon.png[出售] Graco提篮汽座(有底座)2000元诚可议
icon.png[问题] 请问补牙材质掉了还能再补吗?(台中半年内
icon.png[问题] 44th 单曲 生写竟然都给重复的啊啊!
icon.png[心得] 华南红卡/icash 核卡
icon.png[问题] 拔牙矫正这样正常吗
icon.png[赠送] 老莫高业 初业 102年版
icon.png[情报] 三大行动支付 本季掀战火
icon.png[宝宝] 博客来Amos水蜡笔5/1特价五折
icon.pngRe: [心得] 新鲜人一些面试分享
icon.png[心得] 苍の海贼龙 地狱 麒麟25PT
icon.pngRe: [闲聊] (君の名は。雷慎入) 君名二创漫画翻译
icon.pngRe: [闲聊] OGN中场影片:失踪人口局 (英文字幕)
icon.png[问题] 台湾大哥大4G讯号差
icon.png[出售] [全国]全新千寻侘草LED灯, 水草

请输入看板名称,例如:Tech_Job站内搜寻

TOP